Tracking 33845 objects as of 17-Apr-2026
HD Live streaming from Space Station
objects crossing your sky now

HYPSO-2

Track HYPSO-2 now!
10-day predictions


NORAD ID: 60531
Int'l Code: 2024-149BR
Perigee: 577.1 km
Apogee: 580.2 km
Inclination: 97.7 °
Period: 96.1 minutes
Semi major axis: 6949 km
RCS: Unknown
Launch date: August 16, 2024
Source: Norway (NOR)
Launch site: AIR FORCE WESTERN TEST RANGE (AFWTR)
Your satellite tracking list
Your tracking list is empty




NASA's NSSDC Master Catalog

Two Line Element Set (TLE):
1 60531U 24149BR  26107.17407137  .00001636  00000-0  14168-3 0  9990
2 60531  97.6856 184.3324 0002169 108.3551 251.7908 14.98505834 90912
Source of the keplerian elements: AFSPC